Simultaneous Nadir Overpasses (SNOs) Predictions

Prediction of SNOs between AQUA and NOAA-19 Satellite Orbit:

Table of predicted SNOs for the next 14.0 days since TLE Epoch: 5/5/2012
Index Date (AQUA) Time (AQUA) AQUA Lat,Lon Date (NOAA-19) Time (NOAA-19) NOAA-19 Lat,Lon Distance(km) Time Diff (sec)
1 05/07/2012 04:39:03 48.37, -36.51 05/07/2012 04:38:33 48.36, -36.53 1.20 30
2 05/07/2012 05:25:36 -58.74, 136.23 05/07/2012 05:26:34 -58.74, 136.22 0.41 58
3 05/09/2012 09:22:20 51.94,-106.06 05/09/2012 09:22:14 51.94,-106.07 0.28 6
4 05/09/2012 10:04:40 -76.02, 87.96 05/09/2012 10:05:54 -75.75, 89.22 45.45 74
5 05/11/2012 13:18:54 -46.04, 12.79 05/11/2012 13:17:42 -46.00, 12.89 8.68 72
6 05/11/2012 14:05:53 54.57,-175.88 05/11/2012 14:06:11 54.57,-175.88 0.47 18
7 05/13/2012 18:03:12 -46.04, -58.28 05/13/2012 18:02:25 -46.04, -58.28 0.82 47
8 05/13/2012 18:49:39 56.45, 114.04 05/13/2012 18:50:21 56.44, 114.01 2.08 42
9 05/15/2012 22:46:39 -49.08,-128.18 05/15/2012 22:46:15 -49.08,-128.18 0.07 24
10 05/15/2012 23:33:17 58.81, 44.34 05/15/2012 23:34:22 58.80, 44.33 1.04 65
11 05/18/2012 03:30:16 -51.53, 161.79 05/18/2012 03:30:15 -51.53, 161.77 1.47 1




NCC Satellite Simultaneous Nadir Overpasses (SNOs) Prediction Service
